Weather History for Slayton, MN

Change the Weather History Date:

Thursday, February 27, 2014

  Actual Average (KOTG) Record (KOTG)
Temperature  
Mean Temperature -4 °F -  
Max Temperature 4 °F 27 °F 57 °F (1976)
Min Temperature -11 °F 14 °F -11 °F (2014)
Degree Days  
Heating Degree Days 68    
Moisture  
Dew Point -13 °F    
Average Humidity 63    
Maximum Humidity 75    
Minimum Humidity 50    
Precipitation  
Precipitation 0.00 in - - ()
Sea Level Pressure  
Sea Level Pressure 30.03 in    
Wind  
Wind Speed 13 mph (NE)    
Max Wind Speed 22 mph    
Max Gust Speed 31 mph    
Visibility 10 miles    
Events      
Averages and records for this station are not official NWS values.
T = Trace of Precipitation, MM = Missing Value Source: NWS Daily Summary

Daily Weather History Graph

Daily Weather History Graph

Search for Another Location

Airport:

Trip Planner

Search our weather history database for the weather conditions in past years. The results will help you decide how hot, cold, wet, or windy it might be!

Date:

Astronomy

Feb. 27, 2014 Rise Set
Actual Time 7:03 AM CST 6:08 PM CST
Civil Twilight 6:34 AM CST 6:38 PM CST
Nautical Twilight 6:00 AM CST 7:11 PM CST
Astronomical Twilight 5:27 AM CST 7:44 PM CST
Moon 5:39 AM CST (2/27) 4:34 PM CST (2/27)
Length of Visible Light 12h 03m
Length of Day
11h 05m
Waning Crescent, 4% of the Moon is Illuminated
Feb 27
Waning Crescent
Mar 1
New
Mar 8
First Quarter
Mar 16
Full
Mar 23
Last Quarter

Hourly Weather History & Observations

Time (CST) Temp. Windchill Dew Point Humidity Pressure Visibility Wind Dir Wind Speed Gust Speed Precip Events Conditions
12:14 AM -1.5 °F -23.7 °F -9.9 °F 67% 29.99 in 10.0 mi North 19.6 mph 23.0 mph N/A   Scattered Clouds
12:35 AM -2.6 °F -24.0 °F -11.2 °F 67% 30.00 in 10.0 mi NNW 17.3 mph 23.0 mph N/A   Clear
12:55 AM -3.8 °F -26.8 °F -12.3 °F 67% 30.01 in 10.0 mi North 19.6 mph 25.3 mph N/A   Clear
1:15 AM -4.9 °F -29.3 °F -14.8 °F 62% 30.01 in 10.0 mi North 21.9 mph - N/A   Clear
1:35 AM -5.4 °F -28.3 °F -15.7 °F 61% 30.02 in 10.0 mi NNW 18.4 mph 24.2 mph N/A   Clear
1:53 AM -6.0 °F -30.2 °F -15.3 °F 64% 30.02 in 10.0 mi NNW 20.7 mph - N/A   Clear
2:14 AM -6.3 °F -31.2 °F -18.0 °F 57% 30.03 in 10.0 mi NNW 21.9 mph 31.1 mph N/A   Clear
2:35 AM -7.1 °F -29.1 °F -17.7 °F 60% 30.04 in 10.0 mi NNW 16.1 mph - N/A   Clear
2:55 AM -7.6 °F -29.1 °F -18.8 °F 58% 30.05 in 10.0 mi NNW 15.0 mph 21.9 mph N/A   Clear
3:15 AM -7.6 °F -29.8 °F -18.4 °F 59% 30.05 in 10.0 mi NNW 16.1 mph 21.9 mph N/A   Clear
3:35 AM -8.0 °F -28.0 °F -18.0 °F 61% 30.06 in 10.0 mi NNW 12.7 mph 26.5 mph N/A   Clear
3:55 AM -8.5 °F -29.5 °F -18.0 °F 63% 30.06 in 10.0 mi NNW 13.8 mph - N/A   Clear
4:14 AM -8.5 °F -32.3 °F -18.9 °F 60% 30.05 in 10.0 mi NNW 18.4 mph - N/A   Clear
4:34 AM -8.9 °F -29.9 °F -19.3 °F 60% 30.06 in 10.0 mi NNW 13.8 mph - N/A   Clear
4:55 AM -9.4 °F -31.4 °F -19.3 °F 62% 30.07 in 10.0 mi North 15.0 mph - N/A   Clear
5:15 AM -9.6 °F -29.1 °F -19.3 °F 62% 30.08 in 10.0 mi North 11.5 mph - N/A   Clear
5:34 AM -9.8 °F -32.6 °F -19.5 °F 62% 30.07 in 10.0 mi North 16.1 mph - N/A   Clear
5:55 AM -9.9 °F -29.6 °F -19.7 °F 62% 30.09 in 10.0 mi NNW 11.5 mph - N/A   Clear
6:14 AM -10.3 °F -27.9 °F -19.5 °F 64% 30.10 in 10.0 mi North 9.2 mph - N/A   Clear
6:34 AM -10.7 °F -28.4 °F -19.5 °F 65% 30.10 in 10.0 mi NNW 9.2 mph - N/A   Clear
6:55 AM -10.8 °F -30.7 °F -19.5 °F 66% 30.10 in 10.0 mi NNW 11.5 mph - N/A   Clear
7:15 AM -11.2 °F -31.1 °F -19.7 °F 66% 30.10 in 10.0 mi North 11.5 mph - N/A   Clear
7:35 AM -10.8 °F -27.4 °F -20.2 °F 63% 30.11 in 10.0 mi NNW 8.1 mph - N/A   Clear
7:55 AM -10.5 °F -29.2 °F -20.4 °F 62% 30.11 in 10.0 mi North 10.4 mph - N/A   Clear
8:15 AM -9.8 °F -31.1 °F -20.2 °F 60% 30.11 in 10.0 mi North 13.8 mph - N/A   Clear
8:35 AM -9.4 °F -27.9 °F -20.0 °F 60% 30.12 in 10.0 mi NNW 10.4 mph - N/A   Clear
8:55 AM -8.3 °F -25.5 °F -19.1 °F 59% 30.13 in 10.0 mi North 9.2 mph - N/A   Clear
9:14 AM -7.6 °F -23.4 °F -18.4 °F 59% 30.12 in 10.0 mi North 8.1 mph - N/A   Clear
9:35 AM -6.9 °F -21.2 °F -18.6 °F 57% 30.13 in 10.0 mi North 6.9 mph - N/A   Clear
9:55 AM -6.0 °F -22.6 °F -18.6 °F 55% 30.12 in 10.0 mi North 9.2 mph - N/A   Clear
10:14 AM -5.8 °F -19.9 °F -18.9 °F 53% 30.13 in 10.0 mi North 6.9 mph - N/A   Clear
10:35 AM -4.9 °F -17.4 °F -17.5 °F 55% 30.12 in 10.0 mi NNE 5.8 mph - N/A   Clear
10:55 AM -4.0 °F - -16.4 °F 55% 30.13 in 10.0 mi Calm Calm - N/A   Clear
11:15 AM -3.3 °F -11.6 °F -15.9 °F 55% 30.12 in 10.0 mi NNE 3.5 mph - N/A   Clear
11:35 AM -1.8 °F -12.0 °F -14.8 °F 54% 30.11 in 10.0 mi North 4.6 mph - N/A   Clear
11:55 AM -1.1 °F - -13.9 °F 55% 30.11 in 10.0 mi Calm Calm - N/A   Clear
12:14 PM -0.4 °F -8.3 °F -13.5 °F 54% 30.11 in 10.0 mi NNE 3.5 mph - N/A   Clear
12:35 PM 0.3 °F - -13.7 °F 52% 30.10 in 10.0 mi Calm Calm - N/A   Clear
12:55 PM 0.5 °F - -14.1 °F 50% 30.09 in 10.0 mi Calm Calm - N/A   Clear
1:15 PM 1.4 °F - -12.6 °F 52% 30.07 in 10.0 mi Calm Calm - N/A   Clear
1:35 PM 2.3 °F - -10.5 °F 55% 30.06 in 10.0 mi Calm Calm - N/A   Clear
1:55 PM 2.3 °F - -11.9 °F 52% 30.05 in 10.0 mi Calm Calm - N/A   Clear
2:15 PM 3.4 °F -7.5 °F -9.8 °F 54% 30.04 in 10.0 mi ESE 5.8 mph - N/A   Clear
2:34 PM 3.4 °F -4.0 °F -9.9 °F 54% 30.04 in 10.0 mi ESE 3.5 mph - N/A   Clear
2:55 PM 4.5 °F -6.3 °F -7.1 °F 59% 30.04 in 10.0 mi SSE 5.8 mph - N/A   Clear
3:13 PM 4.1 °F -6.7 °F -5.6 °F 64% 30.03 in 10.0 mi SSE 5.8 mph - N/A   Clear
3:35 PM 3.9 °F -6.9 °F -6.2 °F 63% 30.02 in 10.0 mi ESE 5.8 mph - N/A   Clear
3:55 PM 3.6 °F -8.7 °F -6.7 °F 62% 30.01 in 10.0 mi SE 6.9 mph - N/A   Clear
4:15 PM 3.9 °F -8.2 °F -5.6 °F 65% 30.00 in 10.0 mi SE 6.9 mph - N/A   Clear
4:34 PM 3.9 °F -9.4 °F -4.9 °F 67% 30.00 in 10.0 mi SE 8.1 mph - N/A   Clear
4:55 PM 3.6 °F -9.8 °F -5.6 °F 66% 29.99 in 10.0 mi SE 8.1 mph - N/A   Clear
5:15 PM 3.0 °F -12.5 °F -5.1 °F 69% 29.99 in 10.0 mi SE 10.4 mph - N/A   Clear
5:35 PM 2.7 °F -12.9 °F -5.4 °F 69% 29.99 in 10.0 mi SE 10.4 mph - N/A   Clear
5:55 PM 2.1 °F -13.6 °F -5.4 °F 71% 29.98 in 10.0 mi SE 10.4 mph - N/A   Clear
6:15 PM 1.4 °F -15.3 °F -5.1 °F 74% 29.98 in 10.0 mi SE 11.5 mph - N/A   Clear
6:34 PM 0.5 °F -16.5 °F -6.0 °F 74% 29.98 in 10.0 mi SE 11.5 mph - N/A   Clear
6:55 PM -0.4 °F -18.4 °F -7.2 °F 73% 29.97 in 10.0 mi SE 12.7 mph - N/A   Clear
7:15 PM -0.8 °F -18.0 °F -8.7 °F 69% 29.97 in 10.0 mi SE 11.5 mph - N/A   Clear
7:35 PM -1.3 °F -18.7 °F -8.9 °F 70% 29.97 in 10.0 mi SE 11.5 mph - N/A   Clear
7:55 PM -1.5 °F -18.1 °F -8.5 °F 72% 29.96 in 10.0 mi SE 10.4 mph - N/A   Clear
8:15 PM -2.2 °F -19.9 °F -8.7 °F 74% 29.96 in 10.0 mi SE 11.5 mph - N/A   Clear
8:35 PM -2.4 °F -20.1 °F -9.6 °F 71% 29.95 in 10.0 mi SE 11.5 mph - N/A   Clear
8:55 PM -2.6 °F -20.3 °F -10.3 °F 70% 29.95 in 10.0 mi SSE 11.5 mph - N/A   Clear
9:14 PM -2.7 °F -21.4 °F -9.6 °F 73% 29.96 in 10.0 mi SSE 12.7 mph - N/A   Clear
9:35 PM -3.1 °F -21.0 °F -9.4 °F 74% 29.95 in 10.0 mi SSE 11.5 mph - N/A   Clear
9:55 PM -3.3 °F -22.8 °F -9.4 °F 75% 29.94 in 10.0 mi SSE 13.8 mph - N/A   Clear
10:15 PM -3.6 °F -21.7 °F -10.3 °F 73% 29.94 in 10.0 mi SSE 11.5 mph - N/A   Clear
10:35 PM -3.6 °F -23.3 °F -10.5 °F 72% 29.92 in 10.0 mi SSE 13.8 mph - N/A   Clear
10:55 PM -3.6 °F -22.5 °F -10.3 °F 73% 29.91 in 10.0 mi SSE 12.7 mph - N/A   Clear
11:15 PM -4.0 °F -22.1 °F -10.3 °F 74% 29.90 in 10.0 mi SE 11.5 mph - N/A   Clear
11:35 PM -4.0 °F -23.0 °F -10.3 °F 74% 29.89 in 10.0 mi SE 12.7 mph - N/A   Clear
11:55 PM -4.0 °F -23.7 °F -10.3 °F 74% 29.88 in 10.0 mi SE 13.8 mph - N/A   Clear